[[{"header":{"parameterUnit":"m.s-1","parameterCategory":1,"la1":30.2991,"la2":30.254,"lo1":-89.0895,"lo2":-89.0444,"dy":0.0017,"dx":0.0017,"nx":28,"ny":28,"refTime":"2023-10-22T03:00:00:Z","depth":0,"parameterNumber":2,"parameterNumberName":"U-component_of_WINDS"},"data":[0,0,0,0,0,0,0,0,0,0,0,0,0,0,0,0,0,0,0,0,0,0,0,0,0,0,0,0,0,0,0,0,0,0,0,0,0,0,0,0,0,0,0,0,0,0,0,0,0,0,0,0,0,0,0,0,0,0,-2.9994,-2.9995,0,-3.0134,-3.0135,-3.0137,-3.0132,-3.013,-3.0128,-3.0126,-3.0272,-3.0277,-3.0283,0,0,0,0,0,0,0,0,0,0,0,0,0,-2.9725,-2.973,-2.9993,-2.9995,-2.9997,-3.0133,-3.0135,-3.0137,-3.0132,-3.013,-3.0128,-3.0126,-3.027,-3.0277,-3.0284,0,0,0,0,0,0,0,0,0,0,0,0,0,-2.9851,-2.9732,-2.9993,-3.0011,-3.0014,-3.0133,-3.0135,-3.0138,-3.0133,-3.013,-3.0127,-3.0124,-3.0268,-3.0276,-3.0284,-3.0395,0,0,-3.0311,-3.0314,0,0,0,0,0,0,0,0,-2.9844,-2.9861,-3.0007,-3.001,-3.0014,-3.0112,-3.0094,-3.0224,-3.0134,-3.0088,-3.0126,-3.0123,-3.0221,-3.0233,-3.0266,-3.0402,-3.0408,-3.0311,-3.0316,-3.032,-3.0322,0,0,0,0,0,0,0,-2.9835,-2.9855,-3.0049,-3.0009,-3.0013,-3.0013,-3.0028,-3.0119,-3.0169,-3.0092,-3.0092,-3.0108,-3.0223,-3.0258,-3.027,-3.0411,-3.0311,-3.0319,-3.0324,-3.0327,-3.0647,-3.065,0,0,0,0,0,0,-2.9823,-2.9848,-3.0044,-3.0053,-2.992,-3.002,-3.0037,-3.0084,-3.0168,-3.0178,-3.0111,-3.0107,-3.0245,-3.026,-3.0275,-3.0411,-3.032,-3.0328,-3.0333,-3.0644,-3.0648,-3.0651,0,0,0,0,0,0,-2.9817,-2.984,-3.0039,-2.9951,-2.9976,-3.0028,-3.0081,-3.0088,-3.0123,-3.0182,-3.0192,-3.0137,-3.0243,-3.0263,-3.0366,-3.0416,-3.0332,-3.034,-3.064,-3.0645,-3.065,-3.0683,0,0,0,0,0,0,-2.9809,-2.9838,-2.988,-2.9952,-2.9981,-3.0126,-3.0084,-3.0093,-3.0138,-3.0135,-3.021,-3.0219,-3.0242,-3.0353,-3.0374,-3.0426,-3.0346,-3.0635,-3.0642,-3.0648,-3.0678,-3.0689,-3.0698,0,0,0,0,0,-2.98,-2.9884,-2.9882,-2.9905,-3.0034,-3.0129,-3.0146,-3.017,-3.0142,-3.0185,-3.0223,-3.0217,-3.0407,-3.0364,-3.0387,-3.0442,-3.0632,-3.064,-3.0647,-3.0673,-3.0687,-3.0698,0,0,0,0,0,0,-2.9816,-2.9893,-2.9892,-3.0002,-3.0059,-3.0128,-3.0183,-3.0183,-3.025,-3.0245,-3.0272,-3.029,-3.0393,-3.0428,-3.0378,-3.0555,-3.0516,-3.0529,-3.0528,-3.0541,-3.0551,-3.054,-3.0353,0,0,0,0,0,-2.9833,-2.9903,-2.9967,-3.0058,-3.0086,-3.013,-3.0172,-3.0186,-3.0247,-3.0271,-3.0317,-3.0377,-3.0451,-3.0498,-3.0569,-3.0684,-3.0701,-3.0734,-3.0744,-3.0752,-3.0762,-3.0827,-3.0843,-3.0676,-3.0676,-3.0676,0,0,-2.9867,-2.9918,-2.996,-3.0062,-3.0108,-3.0181,-3.015,-3.0229,-3.0284,-3.0283,-3.0383,-3.042,-3.0488,-3.0598,-3.0649,-3.0631,-3.0813,-3.0762,-3.0768,-3.0774,-3.0837,-3.0852,-3.0866,-3.0681,-3.0681,-3.068,0,0,-2.9967,-3.0012,-3.0093,-3.0141,-3.0211,-3.024,-3.0259,-3.0329,-3.0353,-3.0454,-3.0456,-3.0523,-3.0648,-3.0698,-3.0739,-3.0862,-3.0859,-3.0884,-3.0937,-3.1,-3.1013,-3.1024,-3.1068,-3.1084,-3.0894,-3.0895,-3.0895,0,-3.0001,-3.011,-3.0135,-3.0214,-3.026,-3.0263,-3.0346,-3.0391,-3.0481,-3.0513,-3.0492,-3.0651,-3.0697,-3.0819,-3.0849,-3.0883,-3.0907,-3.0875,-3.1009,-3.1021,-3.1032,-3.1074,-3.1091,-3.0897,-3.0897,-3.0897,-3.0896,0,-3.0149,-3.0225,-3.0283,-3.0369,-3.0421,-3.0502,-3.054,-3.0591,-3.0601,-3.0632,-3.0736,-3.0793,-3.0876,-3.0906,-3.0917,-3.1031,-3.1018,-3.1003,-3.0963,-3.105,-3.109,-3.1107,-3.0901,-3.09,-3.0899,-3.0898,0,0,-3.026,-3.0362,-3.0382,-3.0422,-3.0502,-3.0562,-3.0644,-3.0725,-3.0767,-3.0831,-3.0901,-3.1008,-3.0995,-3.1043,-3.106,-3.1115,-3.1209,-3.1094,-3.1096,-3.1113,-3.1339,-3.1349,-3.1367,-3.1209,-3.1212,-3.1215,-3.1333,0,-3.0368,-3.0513,-3.0539,-3.0665,-3.0737,-3.0743,-3.0815,-3.0872,-3.0905,-3.0972,-3.1008,-3.1084,-3.1061,-3.109,-3.1145,-3.1186,-3.1255,-3.1178,-3.1275,-3.1278,-3.1256,-3.1388,-3.1399,-3.1508,-3.1349,-3.1352,-3.1354,0,-3.0513,-3.0579,-3.0713,-3.0784,-3.0815,-3.0879,-3.0957,-3.102,-3.1086,-3.1106,-3.116,-3.1172,-3.1259,-3.1218,-3.1339,-3.1286,-3.1328,-3.1354,-3.1359,-3.1368,-3.132,-3.14,-3.1543,-3.1559,-3.1379,-3.1377,-3.1375,0,-3.058,-3.0704,-3.08,-3.0834,-3.092,-3.0965,-3.1003,-3.1066,-3.1114,-3.1182,-3.1214,-3.1292,-3.1334,-3.1395,-3.1428,-3.1395,-3.1547,-3.1508,-3.1567,-3.1566,-3.1597,-3.1595,-3.1748,-3.1626,-3.1626,-3.1626,-3.1625,0,-3.0697,-3.0779,-3.0832,-3.0891,-3.0983,-3.1014,-3.1105,-3.1142,-3.1199,-3.1266,-3.1278,-3.1341,-3.1381,-3.1451,-3.1477,-3.1574,-3.1594,-3.1613,-3.1619,-3.1611,-3.1609,-3.1638,-3.1631,-3.163,-3.1629,-3.1628,-3.1627,0,-3.0787,-3.0826,-3.0931,-3.1005,-3.1025,-3.109,-3.1153,-3.1212,-3.1246,-3.1331,-3.1353,-3.1406,-3.1489,-3.1528,-3.1631,-3.1649,-3.1759,-3.1761,-3.1737,-3.1738,-3.1795,-3.1789,-3.1971,-3.1997,-3.1859,-3.186,-3.1861,0,-3.0858,-3.0921,-3.1002,-3.1048,-3.1087,-3.1161,-3.121,-3.1244,-3.1294,-3.1376,-3.1425,-3.1508,-3.1576,-3.1709,-3.1758,-3.1837,-3.184,-3.1899,-3.1852,-3.1843,-3.1841,-3.1836,-3.1843,-3.1906,-3.1908,-3.1909,-3.191,0,-3.0981,-3.0998,-3.1067,-3.1145,-3.1203,-3.1266,-3.1327,-3.1365,-3.1409,-3.1466,-3.155,-3.1604,-3.1709,-3.1792,-3.1876,-3.1916,-3.1921,-3.1925,-3.1942,-3.1935,-3.1918,-3.1927,-3.1759,-3.192,-3.1919,-3.1918,-3.1918,-3.1917,-3.1064,-3.112,-3.1186,-3.1264,-3.1315,-3.1372,-3.1431,-3.1473,-3.1544,-3.1632,-3.1649,-3.1739,-3.1806,-3.1918,-3.1962,-3.2034,-3.2021,-3.2047,-3.2053,-3.2058,-3.2061,-3.1908,-3.205,-3.205,-3.2049,-3.2049,-3.2049,0,-3.1186,-3.123,-3.1301,-3.1387,-3.1449,-3.1449,-3.1518,-3.157,-3.1649,-3.1711,-3.1779,-3.1877,-3.1959,-3.2015,-3.2098,-3.2145,-3.2149,-3.2165,-3.2162,-3.2171,-3.2069,-3.2045,-3.216,-3.216,-3.216,-3.216,-3.216,-3.216,-3.1257,-3.1353,-3.1379,-3.1501,-3.1544,-3.1632,-3.1671,-3.1726,-3.1775,-3.1885,-3.1952,-3.1988,-3.2049,-3.2137,-3.2212,-3.2227,-3.2256,-3.2273,-3.2287,-3.219,-3.2178,-3.2167,-3.2145,-3.2279,-3.228,-3.2383,-3.2384,-3.2385]},{"header":{"parameterUnit":"m.s-1","parameterCategory":1,"la1":30.2991,"la2":30.254,"lo1":-89.0895,"lo2":-89.0444,"dy":0.0017,"dx":0.0017,"nx":28,"ny":28,"refTime":"2023-10-22T03:00:00:Z","depth":0,"parameterNumber":3,"parameterNumberName":"V-component_of_WINDS"},"data":[0,0,0,0,0,0,0,0,0,0,0,0,0,0,0,0,0,0,0,0,0,0,0,0,0,0,0,0,0,0,0,0,0,0,0,0,0,0,0,0,0,0,0,0,0,0,0,0,0,0,0,0,0,0,0,0,0,0,1.0,1.0,0,1.001,1.001,1.001,1.0023,1.0023,1.0023,1.0024,1.0032,1.0032,1.0032,0,0,0,0,0,0,0,0,0,0,0,0,0,0.9994,0.9995,1.0,1.0,1.0001,1.001,1.001,1.001,1.0023,1.0023,1.0023,1.0024,1.0032,1.0032,1.0032,0,0,0,0,0,0,0,0,0,0,0,0,0,1.0,0.9995,1.0,1.0008,1.0009,1.001,1.001,1.001,1.0023,1.0023,1.0023,1.0024,1.0032,1.0032,1.0032,1.0025,0,0,1.0032,1.0032,0,0,0,0,0,0,0,0,0.9999,1.0,1.0007,1.0008,1.0009,1.0015,1.0011,1.0015,1.0023,1.0017,1.0024,1.0024,1.0026,1.0027,1.0028,1.0026,1.0026,1.0032,1.0032,1.0032,1.0032,0,0,0,0,0,0,0,0.9999,1.0,1.0004,1.0007,1.0008,1.0011,1.0013,1.0012,1.002,1.0018,1.0019,1.002,1.0027,1.0028,1.0028,1.0026,1.0032,1.0032,1.0032,1.0032,1.0021,1.0021,0,0,0,0,0,0,0.9997,0.9999,1.0004,1.0004,1.0005,1.0011,1.0012,1.0013,1.002,1.0021,1.002,1.0021,1.0027,1.0028,1.0028,1.0022,1.0032,1.0032,1.0032,1.0022,1.0021,1.0021,0,0,0,0,0,0,0.9997,0.9998,1.0003,1.0002,1.0003,1.0011,1.0011,1.0013,1.0014,1.0021,1.0023,1.0019,1.0028,1.0028,1.0026,1.0022,1.0032,1.0032,1.0022,1.0022,1.0021,1.0008,0,0,0,0,0,0,0.9997,0.9998,0.9995,1.0002,1.0003,1.0001,1.0011,1.0013,1.0014,1.0015,1.0021,1.0022,1.0028,1.0026,1.0027,1.0023,1.0032,1.0022,1.0022,1.0021,1.0009,1.0007,1.0006,0,0,0,0,0,0.9997,0.999,0.9995,0.9995,1.0,1.0001,1.0001,1.0008,1.0013,1.0011,1.0016,1.0022,1.0023,1.0026,1.0026,1.0022,1.0023,1.0022,1.0021,1.001,1.0008,1.0006,0,0,0,0,0,0,0.9981,0.9991,0.9996,0.9992,0.9995,1.0003,1.0,1.0006,1.0008,1.0009,1.0017,1.0019,1.0016,1.0019,1.0022,1.0017,1.0024,1.0023,1.0015,1.0013,1.0012,1.0011,1.0032,0,0,0,0,0,0.9978,0.9978,0.9986,0.9982,0.9983,0.9991,0.9992,0.9997,1.0001,1.0003,1.0008,1.0011,1.0013,1.0013,1.0015,1.001,1.0012,1.0008,1.0006,1.0005,1.0004,1.0003,1.0002,1.0019,1.0019,1.0019,0,0,0.9969,0.9975,0.9974,0.9979,0.9982,0.9982,0.9992,0.9992,0.9992,1.0003,1.0001,1.0006,1.001,1.0007,1.0006,1.001,1.0,1.0004,1.0003,1.0003,1.0002,1.0001,0.9999,1.0018,1.0018,1.0019,0,0,0.9955,0.9959,0.9956,0.996,0.9965,0.9971,0.9971,0.9978,0.9981,0.998,0.9989,0.999,0.9991,0.9995,0.9997,0.9986,0.9992,0.9987,0.9978,0.9977,0.9976,0.9975,0.9972,0.997,0.9986,0.9986,0.9986,0,0.9943,0.9944,0.9953,0.9953,0.9955,0.9966,0.9963,0.9967,0.9972,0.9974,0.9978,0.9982,0.9985,0.9984,0.9982,0.9983,0.9983,0.9985,0.9976,0.9974,0.9974,0.9971,0.9969,0.9985,0.9985,0.9985,0.9985,0,0.9931,0.9931,0.9928,0.9935,0.9937,0.9935,0.9944,0.9945,0.9951,0.9957,0.9957,0.9962,0.9966,0.9966,0.9971,0.9966,0.9968,0.9974,0.9981,0.9971,0.9968,0.9967,0.9984,0.9984,0.9985,0.9985,0,0,0.9904,0.9918,0.9916,0.992,0.9928,0.9929,0.9929,0.9933,0.9934,0.9938,0.9938,0.9941,0.9947,0.9949,0.9955,0.9955,0.9947,0.9961,0.9961,0.9958,0.9943,0.9938,0.9937,0.9952,0.9951,0.9951,0.9943,0,0.9891,0.9891,0.99,0.9898,0.9899,0.9911,0.9911,0.9916,0.9922,0.9924,0.9931,0.9932,0.994,0.9941,0.9941,0.9948,0.9944,0.9949,0.9952,0.9952,0.995,0.9935,0.993,0.9922,0.9942,0.9941,0.9941,0,0.9875,0.9879,0.9877,0.9888,0.9888,0.9888,0.9894,0.9896,0.9903,0.9907,0.9911,0.9919,0.992,0.9927,0.9929,0.9932,0.9934,0.9938,0.9938,0.9938,0.9946,0.9935,0.9919,0.9918,0.994,0.994,0.994,0,0.9856,0.9862,0.9862,0.9865,0.9876,0.9876,0.9881,0.9889,0.9891,0.9896,0.9898,0.9903,0.9906,0.991,0.9919,0.9923,0.9921,0.9928,0.9925,0.9924,0.9923,0.9922,0.9906,0.9925,0.9925,0.9925,0.9925,0,0.984,0.9838,0.9854,0.9854,0.9853,0.9864,0.9863,0.9869,0.9876,0.9878,0.9888,0.989,0.9902,0.9905,0.9912,0.9914,0.9915,0.9919,0.992,0.9917,0.9917,0.9918,0.9919,0.9924,0.9924,0.9924,0.9925,0,0.9818,0.9829,0.9829,0.9841,0.9845,0.9843,0.9854,0.9854,0.9862,0.9864,0.9865,0.9877,0.9881,0.9891,0.9898,0.9903,0.9903,0.9906,0.99,0.9901,0.9897,0.9898,0.9881,0.988,0.9899,0.9899,0.9899,0,0.9807,0.9806,0.9819,0.9821,0.9826,0.9829,0.9832,0.9844,0.9847,0.9856,0.9856,0.9862,0.9867,0.9873,0.9883,0.9888,0.9892,0.9886,0.9893,0.989,0.9892,0.9892,0.9893,0.9884,0.9884,0.9884,0.9884,0,0.9786,0.9792,0.9796,0.9803,0.9807,0.9812,0.9818,0.982,0.9833,0.9836,0.9842,0.9846,0.9854,0.9859,0.9867,0.9872,0.988,0.9882,0.9881,0.9878,0.9874,0.9877,0.9896,0.9882,0.9882,0.9882,0.9882,0.9882,0.9769,0.9769,0.9779,0.9784,0.979,0.9797,0.9798,0.9807,0.9811,0.9819,0.9826,0.9831,0.984,0.9851,0.9857,0.9861,0.9865,0.9864,0.9864,0.9863,0.9862,0.9875,0.9862,0.9862,0.9863,0.9863,0.9863,0,0.9749,0.9756,0.9761,0.977,0.9774,0.9783,0.9791,0.9794,0.9798,0.9806,0.9811,0.9818,0.9824,0.9835,0.9842,0.9844,0.9848,0.9845,0.9845,0.9846,0.9858,0.9858,0.9842,0.9842,0.9842,0.9842,0.9842,0.9842,0.9738,0.974,0.9747,0.9753,0.976,0.9765,0.9769,0.9776,0.9782,0.9789,0.9795,0.9802,0.9812,0.982,0.9827,0.983,0.9832,0.9828,0.9832,0.9843,0.9845,0.9847,0.9847,0.9829,0.9829,0.982,0.982,0.982]}]]